This is the latest recevied weather packets stored in our database for station/object KD8OUK. If no packets are shown the sender has not sent any weather packets the latest 10 day(s).
| Time | Temp. | Humidity | Pressure | Rain* | Wind** | Luminosity | Snow |
|---|---|---|---|---|---|---|---|
| 1778028329 | 9.44° C | 99% | 1008.8 hPa | 13.72 mm | - | - | - |
| 1778028021 | 9.44° C | 99% | 1008.8 hPa | 16.26 mm | - | - | - |
| 1778027732 | 10° C | 99% | 1008.7 hPa | 19.3 mm | - | - | - |
| 1778027424 | 10° C | 99% | 1008.7 hPa | 23.62 mm | - | - | - |
| 1778027116 | 10° C | 99% | 1008.6 hPa | 26.42 mm | - | - | - |
| 1778026826 | 10° C | 99% | 1008.4 hPa | 27.94 mm | - | - | - |
| 1778026518 | 10.56° C | 99% | 1008.4 hPa | 28.45 mm | - | - | - |
| 1778026228 | 10.56° C | 99% | 1008.3 hPa | 27.69 mm | - | - | - |
| 1778025921 | 10.56° C | 99% | 1008.3 hPa | 26.92 mm | - | - | - |
| 1778025631 | 11.11° C | 99% | 1008.3 hPa | 26.16 mm | - | - | - |
| 1778025323 | 11.11° C | 99% | 1008.3 hPa | 24.89 mm | - | - | - |
| 1778025016 | 11.67° C | 99% | 1008.3 hPa | 22.86 mm | - | - | - |
| 1778024725 | 11.67° C | 99% | 1008.2 hPa | 20.07 mm | - | - | - |
| 1778024418 | 12.22° C | 99% | 1008.2 hPa | 17.27 mm | - | - | - |
| 1778024123 | 13.33° C | 99% | 1007.7 hPa | 14.22 mm | - | - | - |
| 1778023832 | 14.44° C | 99% | 1007.7 hPa | 9.65 mm | - | - | - |
| 1778023525 | 14.44° C | 99% | 1007.8 hPa | 6.6 mm | - | - | - |
| 1778023217 | 14.44° C | 99% | 1007.8 hPa | 4.32 mm | - | - | - |
| 1778022927 | 14.44° C | 99% | 1007.8 hPa | 3.05 mm | - | - | - |
| 1778022619 | 14.44° C | 99% | 1008 hPa | 2.54 mm | - | - | - |
| 1778022329 | 14.44° C | 99% | 1008 hPa | 2.03 mm | - | - | - |
| 1778022021 | 14.44° C | 99% | 1008.2 hPa | 1.52 mm | - | - | - |
| 1778021725 | 14.44° C | 99% | 1008.2 hPa | 1.02 mm | - | - | - |
| 1778021424 | 14.44° C | 99% | 1008.3 hPa | 1.02 mm | - | - | - |
| 1778021116 | 14.44° C | 99% | 1008.4 hPa | 0.76 mm | - | - | - |
* Rain latest hour (hover to see other rain measurements)
** Current wind speed in m/s (hover to see current wind gust speed)